Theta_e
323 325 326 328 332 337 339 341 341 343 349 351 350 351 351 353 353 353 354 353 352 352 351 351 352 352 353 354 354 354 354 354 356 356 355 354 354 353 355 355 355 354 353 351
323 324 327 329 330 334 336 340 341 345 349 350 349 351 350 350 355 353 352 353 353 352 353 352 352 352 353 354 355 355 355 356 358 356 355 354 354 353 353 354 355 355 355 354
324 323 326 327 330 334 338 340 341 345 350 349 348 350 350 347 350 354 353 351 352 353 352 353 352 353 353 354 356 356 357 357 358 357 357 357 356 356 355 354 354 353 355 355
324 324 324 325 327 332 338 338 340 344 350 352 350 350 346 348 351 353 355 351 351 353 353 352 352 352 353 353 355 357 358 359 358 359 356 356 355 352 349 350 348 349 352 353
324 323 323 324 325 330 334 336 339 342 347 347 350 353 347 347 351 352 354 352 349 349 349 349 350 348 350 352 353 356 358 359 359 358 358 357 357 352 352 352 353 351 351 353
325 325 323 324 325 326 331 334 337 340 343 348 346 349 348 348 352 349 350 352 349 346 346 346 345 346 348 349 351 353 357 360 360 359 360 359 356 355 352 354 353 347 345 348
326 325 323 323 324 325 329 334 343 345 345 347 345 346 346 342 341 345 344 349 350 348 346 346 346 345 345 347 349 352 356 361 360 359 358 359 359 358 357 357 354 345 343 343
328 326 325 323 324 326 328 334 340 344 343 344 343 344 343 343 342 341 340 343 348 350 349 347 348 347 347 348 350 352 356 360 360 358 358 358 359 358 357 357 352 347 341 341
328 328 325 325 324 326 328 334 335 338 339 341 339 341 340 339 341 340 340 341 345 349 350 349 349 349 349 350 353 355 357 360 360 357 359 359 359 358 355 356 356 349 345 341
328 329 326 325 325 325 328 331 335 337 343 342 339 339 340 340 339 338 337 339 342 345 349 349 350 349 350 350 352 354 357 359 358 356 357 357 358 358 357 357 356 350 346 342
328 328 328 326 326 325 326 330 333 335 336 340 340 338 336 336 337 336 335 336 337 340 346 349 350 349 350 351 352 354 356 357 357 357 357 357 356 357 358 356 354 350 345 341
328 329 329 326 325 325 326 329 333 337 341 337 338 338 335 336 336 335 335 335 335 337 342 346 350 350 349 352 352 353 355 356 357 356 358 357 356 357 357 355 351 346 342 335
329 331 332 329 324 324 325 327 329 333 334 342 339 338 336 334 335 336 337 338 338 347 346 346 349 352 352 352 354 353 354 355 355 356 357 357 357 357 354 351 347 341 329 333
327 331 332 332 328 325 324 324 327 329 336 335 336 338 336 335 335 335 336 336 338 342 349 350 350 352 353 353 357 356 354 354 354 355 356 358 358 355 352 351 345 337 334 333
324 330 331 330 329 328 328 325 324 325 327 331 331 334 335 335 334 334 334 334 336 346 350 352 352 353 356 355 357 356 355 354 354 355 356 357 358 354 351 352 345 335 335 329
329 334 335 334 330 329 329 328 327 325 325 326 328 330 332 333 334 334 334 334 337 344 350 351 353 354 356 356 357 357 356 355 355 356 357 358 357 351 352 350 345 340 337 328
328 330 336 336 334 333 333 331 330 329 327 325 327 328 329 330 332 335 339 337 338 339 348 351 353 354 356 355 356 357 356 356 357 357 359 358 356 353 351 350 347 342 337 335
334 337 334 337 335 337 333 332 331 330 329 328 326 327 328 330 332 333 341 339 340 340 342 349 351 352 353 353 355 354 356 357 358 359 359 357 356 352 351 350 347 343 338 336
330 338 337 339 338 334 332 331 332 332 332 330 328 328 328 330 333 338 339 340 343 343 344 347 348 349 351 351 352 353 354 357 358 358 358 356 353 352 351 350 348 344 341 338
331 335 341 341 339 340 343 341 339 340 337 331 330 329 330 330 334 337 339 341 340 340 344 348 346 347 350 350 351 354 356 357 357 356 356 354 352 352 351 348 347 344 342 340
340 341 341 339 340 338 341 338 338 339 337 343 332 331 330 333 335 343 341 342 342 344 347 346 347 348 350 350 353 355 355 356 355 355 354 353 352 351 349 348 345 343 342 340
340 340 338 339 342 343 337 339 341 345 345 342 342 341 341 341 344 345 347 347 347 349 349 350 352 352 349 353 354 355 355 355 355 355 354 352 351 349 347 345 343 341 340 339
339 336 336 342 342 338 335 339 337 338 342 347 343 342 343 344 345 347 348 349 349 348 349 349 351 352 353 353 354 355 355 355 354 353 352 350 347 347 345 343 343 341 340 340
343 340 341 342 338 337 334 331 332 334 335 338 343 344 344 344 343 344 344 345 346 346 347 346 349 352 353 352 353 351 351 351 350 351 349 347 346 344 342 343 342 342 341 340
337 341 342 340 337 332 333 333 330 330 331 332 336 340 343 345 346 347 349 348 348 349 349 349 351 352 352 352 350 350 349 350 349 348 347 344 342 340 339 337 336 336 337 337
326 333 341 339 335 336 334 330 328 330 330 330 331 333 333 335 338 342 347 348 349 348 348 348 349 349 347 348 346 345 348 347 346 346 345 343 342 341 340 335 327 329 328 327
Wind_Speed
21 17 22 24 22 20 15 15 15 14 14 16 15 14 11 11 16 17 18 19 20 20 22 24 25 24 22 21 20 21 21 20 18 17 16 16 15 13 12 13 12 12 12 13
15 22 22 20 22 23 18 18 17 13 9 15 13 15 13 13 16 18 19 20 20 20 19 23 25 26 26 24 24 23 24 22 21 18 16 14 12 13 12 11 11 11 10 11
19 20 20 21 20 23 21 20 18 14 12 15 9 14 15 16 17 16 20 20 22 21 21 21 26 27 27 27 26 26 26 25 23 22 17 13 12 11 11 12 11 10 10 10
20 18 22 19 24 22 23 21 18 16 14 13 14 11 13 16 18 19 20 21 22 23 22 21 24 28 29 29 27 27 27 26 26 24 22 19 16 15 11 9 8 8 8 7
20 21 20 24 24 23 23 17 17 18 18 17 14 9 13 5 14 18 22 23 23 23 23 23 23 30 31 30 29 28 28 28 27 26 25 22 20 17 13 10 7 9 9 10
22 15 19 23 21 23 20 12 15 18 16 19 21 14 14 13 15 16 16 22 24 25 23 22 28 29 30 31 30 29 29 30 29 27 26 25 22 19 15 13 12 11 10 10
22 21 17 17 23 24 21 18 12 15 15 15 20 16 16 9 12 14 14 19 23 23 23 23 23 25 30 32 32 31 29 30 30 29 28 27 26 22 19 16 14 11 10 10
21 22 26 18 26 26 28 26 15 25 16 14 18 16 19 19 20 20 15 11 17 23 23 25 25 29 32 33 33 31 30 31 32 31 30 27 25 23 20 17 14 13 11 10
20 27 27 25 19 26 28 27 25 23 20 17 18 15 22 14 17 18 16 14 15 20 24 27 26 33 34 34 34 35 33 33 33 33 29 28 25 23 20 17 16 15 13 10
14 15 21 24 21 27 28 23 24 21 25 23 21 21 13 17 19 19 17 14 17 18 21 23 25 32 36 36 36 35 35 35 33 32 31 28 26 24 22 22 19 16 16 16
24 15 18 20 26 25 21 20 25 23 22 18 18 18 16 14 13 12 12 13 13 14 18 21 23 33 36 35 35 35 34 33 31 34 34 30 28 26 25 25 23 22 17 18
27 15 17 25 26 27 25 25 27 18 25 20 21 17 18 20 18 21 21 15 10 10 12 17 20 26 32 35 34 33 34 34 35 35 33 32 30 29 30 28 27 22 21 19
22 21 15 19 19 24 29 27 28 26 21 27 20 19 16 11 12 12 14 13 10 7 10 13 17 20 25 32 32 34 34 34 33 29 31 31 31 31 31 33 26 27 24 23
7 19 23 18 24 21 21 27 29 28 20 22 25 22 23 22 18 18 13 13 14 10 10 13 15 19 24 28 29 31 32 30 29 30 30 29 30 32 35 32 31 31 28 30
15 18 17 25 23 24 25 25 26 29 29 27 24 29 22 23 18 20 18 16 15 10 13 15 17 18 18 25 26 28 28 27 27 27 27 28 28 28 29 32 33 37 35 36
14 14 18 21 24 24 21 25 27 28 28 29 31 30 22 23 25 21 21 19 18 15 15 16 17 18 20 25 26 25 25 25 24 25 27 25 26 26 31 33 34 33 35 39
17 14 16 19 21 23 25 27 27 29 28 28 28 25 24 28 24 25 21 22 19 19 16 15 19 20 19 24 24 24 24 24 25 26 24 24 26 26 28 30 31 31 33 28
13 17 15 15 17 21 20 24 26 28 28 30 28 25 23 27 22 23 23 20 19 18 18 14 14 15 21 23 24 23 24 25 24 24 25 24 24 25 25 28 31 33 33 32
17 12 14 14 16 13 15 13 14 24 28 25 26 23 25 22 16 16 17 16 19 16 14 12 16 20 23 25 25 26 25 24 22 22 22 23 22 21 22 25 27 28 28 28
19 18 14 10 19 18 6 8 8 10 14 24 25 25 24 19 15 16 10 12 14 10 10 11 18 22 24 25 27 27 25 23 22 22 21 19 18 17 18 19 21 23 25 25
15 16 20 17 13 9 6 7 2 6 5 21 22 26 22 21 15 3 5 8 6 6 9 14 17 18 21 23 25 23 23 20 18 18 16 16 17 19 19 19 19 19 20 19
20 16 13 12 13 16 6 4 5 6 12 12 11 12 15 12 9 10 10 12 14 14 16 19 19 19 21 22 22 21 19 18 19 18 17 15 12 10 13 13 15 17 17 17
18 16 12 6 4 6 4 2 2 3 6 10 0 6 10 13 12 15 16 17 17 15 15 21 22 22 19 20 21 20 19 18 18 17 15 14 14 12 8 11 12 14 16 15
3 8 4 10 5 8 11 11 10 14 7 4 9 12 14 16 16 13 15 16 17 16 15 20 21 19 18 16 15 18 16 15 15 14 12 13 13 14 9 8 11 10 10 12
5 5 11 13 12 13 11 12 12 12 11 10 15 16 15 14 13 12 13 13 12 14 18 18 16 17 17 15 16 18 20 19 16 15 15 14 15 15 13 10 6 3 4 5
6 4 5 8 12 12 10 10 8 10 9 10 15 17 16 16 15 14 13 13 11 11 16 16 16 14 15 15 15 17 16 17 17 16 14 14 14 13 12 12 8 7 5 9
Wind_Direction
191 203 208 203 214 227 218 207 207 201 161 202 209 217 200 195 213 212 200 200 201 204 201 200 201 201 202 203 202 205 205 205 204 206 211 217 225 231 240 250 251 252 250 247
182 215 207 212 211 229 233 218 218 165 175 214 211 232 223 208 214 218 214 205 211 208 205 201 203 205 204 205 207 207 211 210 210 211 215 225 233 240 245 247 255 257 249 238
208 201 213 212 210 217 223 228 220 198 181 221 249 241 231 219 209 220 221 219 211 214 210 204 205 207 208 207 209 210 213 213 213 215 217 220 230 241 244 249 259 256 246 247
221 209 205 208 223 209 219 220 230 212 188 222 199 249 208 208 205 218 217 216 217 211 213 211 208 208 210 211 211 213 214 213 215 214 219 218 223 233 237 247 253 247 239 230
202 209 201 213 212 210 228 221 226 235 210 238 180 245 258 195 228 213 218 212 215 214 212 212 208 209 210 209 211 212 214 214 214 213 216 216 226 234 236 232 231 223 214 214
226 197 215 223 215 222 219 236 233 233 233 226 228 209 239 215 224 233 221 214 212 209 209 210 211 207 207 208 211 211 210 210 211 210 214 216 223 224 223 215 216 218 215 217
213 198 212 212 213 211 210 209 206 217 221 232 213 233 232 247 222 228 238 208 213 210 208 205 206 203 204 206 207 210 207 209 209 210 212 215 219 219 220 218 222 223 219 215
206 211 201 195 212 202 209 211 219 214 220 221 237 230 233 242 259 268 260 249 200 210 209 209 204 205 204 207 206 208 205 208 207 208 211 213 215 217 220 219 226 217 221 222
203 226 197 212 211 218 202 218 226 241 224 234 224 216 248 242 260 261 253 229 223 206 210 209 206 206 205 206 207 205 204 206 206 207 209 212 212 214 215 217 213 211 204 205
226 224 216 199 210 220 228 206 220 229 232 227 240 232 222 224 231 238 237 228 223 216 211 212 210 205 205 206 208 207 205 205 206 207 209 212 210 209 207 204 205 208 193 190
228 219 211 206 208 204 209 230 215 231 227 239 228 235 220 240 242 242 245 223 230 226 214 212 209 210 203 206 205 207 207 208 206 205 205 205 206 204 202 203 203 193 197 195
222 209 238 211 215 222 210 215 215 224 222 234 249 242 225 224 232 247 248 255 282 255 231 213 206 205 203 204 207 204 208 207 208 206 202 204 201 199 197 199 203 190 183 193
208 226 213 232 207 220 226 212 223 217 233 227 229 234 241 197 228 260 248 257 263 246 243 221 203 197 201 202 205 205 207 209 210 206 206 205 201 198 200 202 191 191 188 187
293 214 223 215 217 193 213 232 229 226 225 236 241 232 227 225 234 239 240 260 268 261 231 204 200 195 198 202 200 205 208 209 208 205 207 204 201 201 202 197 191 193 190 190
219 227 229 230 244 223 221 210 225 234 240 239 239 241 227 239 232 249 258 258 268 249 220 200 197 198 194 198 201 203 207 206 205 205 205 206 205 207 209 201 192 194 194 196
216 230 236 233 234 241 241 229 230 225 233 240 244 247 242 225 241 242 247 251 251 246 224 205 199 199 197 197 197 194 196 199 199 199 204 201 203 209 208 206 199 194 196 199
218 221 234 238 225 238 239 240 233 234 231 235 237 238 235 243 238 236 240 242 244 245 229 209 205 201 196 192 190 188 187 187 189 197 196 199 203 208 211 209 206 199 203 205
224 218 220 238 230 237 244 242 237 243 236 232 235 241 229 236 230 232 229 238 240 240 244 215 204 198 193 186 179 178 179 182 186 189 193 196 199 205 207 208 206 206 209 213
225 235 221 235 230 237 228 217 258 243 238 240 235 232 234 221 227 252 245 238 238 243 241 222 198 185 183 177 173 172 172 173 179 188 192 192 197 203 203 206 210 213 210 214
221 217 244 202 244 236 52 21 353 327 256 236 234 218 225 230 233 244 211 217 229 233 218 193 180 172 177 172 166 164 165 166 175 184 189 188 190 200 207 213 214 206 213 216
196 199 213 229 229 211 31 342 145 211 289 321 242 235 226 230 238 327 186 183 149 160 158 158 156 162 160 156 155 152 154 165 171 170 167 171 184 194 195 198 213 206 212 219
195 197 210 228 217 226 5 209 236 354 326 312 276 252 239 215 169 150 137 126 120 125 127 125 121 131 139 140 145 142 144 150 156 156 157 166 172 184 199 190 207 206 202 217
197 209 210 241 190 86 77 83 50 28 360 349 77 153 155 161 152 143 136 121 115 116 118 120 120 117 119 129 138 136 141 148 151 147 149 153 156 164 181 189 198 202 204 215
101 127 148 167 126 94 101 82 62 70 71 55 58 92 107 115 114 117 106 107 108 101 100 107 109 109 107 108 108 118 123 128 131 129 136 143 144 126 172 190 206 212 208 220
1 300 146 102 127 110 79 69 72 76 71 74 79 85 86 83 78 78 76 79 84 90 88 85 88 97 100 103 107 117 124 126 122 134 135 119 120 129 134 132 141 164 175 204
343 343 210 163 148 115 89 59 41 63 77 70 71 63 54 62 64 66 66 67 58 68 84 89 91 90 94 98 106 118 125 124 126 120 132 137 144 157 166 164 145 177 191 193